Вернуться в каталог

NOAA 16 DEB

АктивенPO
NORAD 41215·DEBRIS·🇺🇸 United States

Запущен Sep 21, 2000 с Vandenberg Space Force Base

Loading…

Ближайшие Пролёты (ближайшие 24 часа)

TLE

СвежийSource: Space-Track

Эпоха: Sep 14, 2026, 04:50 UTC

1 41215U 00055DU  26257.20145906  .00005240  00000-0  13063-2 0  9998
2 41215  98.8232  43.6726 0021936 165.5868 194.5956 14.51942609560411

Отслеживайте NOAA 16 DEB в реальном времени с AllMySat

Download on the App Store